• In Italy
  • List of Countries
  • For 7 days
  • Water Temperature
  • Satellite Maps
  • Weather Map
  • Weather Widgets
  • user-avatar
    Login

    Hourly Weather Unieszyno

    Today, 19 June, Tuesday

    Time Temperature Precipitation Wind Pressure Humidity
    00:00 +14°C° 0 mm 3 mps 756 mmHg 86%
    01:00 +14°C° 0 mm 3 mps 756 mmHg 86%
    02:00 +14°C° 0 mm 4 mps 756 mmHg 86%
    03:00 +14°C° 0 mm 4 mps 755 mmHg 85%
    04:00 +14°C° 0 mm 4 mps 755 mmHg 84%
    05:00 +16°C° 0 mm 5 mps 755 mmHg 81%
    06:00 +17°C° 0 mm 5 mps 755 mmHg 78%
    07:00 +20°C° 0 mm 6 mps 755 mmHg 74%
    08:00 +20°C° 0.1 mm 6 mps 755 mmHg 72%
    09:00 +20°C° 0.1 mm 6 mps 755 mmHg 70%
    10:00 +20°C° 0.1 mm 7 mps 756 mmHg 68%
    11:00 +21°C° 0 mm 7 mps 756 mmHg 64%
    12:00 +21°C° 0 mm 7 mps 756 mmHg 61%
    13:00 +22°C° 0 mm 7 mps 756 mmHg 57%
    14:00 +22°C° 0 mm 7 mps 756 mmHg 57%
    15:00 +22°C° 0 mm 7 mps 756 mmHg 58%
    16:00 +22°C° 0 mm 7 mps 756 mmHg 58%
    17:00 +21°C° 0 mm 7 mps 756 mmHg 62%
    18:00 +21°C° 0 mm 6 mps 756 mmHg 67%
    19:00 +20°C° 0 mm 6 mps 757 mmHg 71%
    20:00 +17°C° 0 mm 5 mps 757 mmHg 76%
    21:00 +16°C° 0 mm 5 mps 757 mmHg 82%
    22:00 +15°C° 0 mm 5 mps 758 mmHg 87%
    23:00 +14°C° 0 mm 4 mps 758 mmHg 88%

    Tomorrow, 20 June, Wednesday

    Time Temperature Precipitation Wind Pressure Humidity
    00:00 +14°C° 0 mm 4 mps 758 mmHg 89%
    01:00 +13°C° 0 mm 4 mps 758 mmHg 90%
    02:00 +13°C° 0 mm 4 mps 758 mmHg 90%
    03:00 +12°C° 0 mm 4 mps 758 mmHg 90%
    04:00 +12°C° 0 mm 4 mps 758 mmHg 91%
    05:00 +13°C° 0 mm 4 mps 759 mmHg 82%
    06:00 +15°C° 0 mm 4 mps 759 mmHg 74%
    07:00 +17°C° 0 mm 5 mps 759 mmHg 66%
    08:00 +19°C° 0 mm 5 mps 759 mmHg 60%
    09:00 +20°C° 0 mm 5 mps 759 mmHg 54%
    10:00 +21°C° 0 mm 5 mps 759 mmHg 48%
    11:00 +22°C° 0 mm 5 mps 759 mmHg 45%
    12:00 +23°C° 0 mm 5 mps 759 mmHg 42%
    13:00 +25°C° 0 mm 5 mps 758 mmHg 39%
    14:00 +25°C° 0 mm 5 mps 758 mmHg 40%
    15:00 +26°C° 0 mm 5 mps 758 mmHg 41%
    16:00 +26°C° 0 mm 5 mps 757 mmHg 41%
    17:00 +25°C° 0 mm 4 mps 757 mmHg 48%
    18:00 +24°C° 0 mm 3 mps 756 mmHg 54%
    19:00 +22°C° 0 mm 3 mps 756 mmHg 61%
    20:00 +21°C° 0 mm 3 mps 756 mmHg 66%
    21:00 +20°C° 0 mm 3 mps 756 mmHg 71%
    22:00 +18°C° 0 mm 3 mps 755 mmHg 77%
    23:00 +18°C° 0 mm 4 mps 755 mmHg 78%

    Day after tomorrow, 21 June, Thursday

    Time Temperature Precipitation Wind Pressure Humidity
    00:00 +18°C° 0 mm 4 mps 755 mmHg 79%
    01:00 +18°C° 0 mm 4 mps 754 mmHg 81%
    02:00 +18°C° 0.1 mm 4 mps 754 mmHg 82%
    03:00 +18°C° 0.1 mm 4 mps 753 mmHg 83%
    04:00 +18°C° 0.1 mm 4 mps 753 mmHg 84%
    05:00 +20°C° 0.2 mm 4 mps 752 mmHg 81%
    06:00 +21°C° 0.2 mm 4 mps 752 mmHg 78%
    07:00 +22°C° 0.2 mm 5 mps 751 mmHg 75%
    08:00 +23°C° 0.6 mm 5 mps 751 mmHg 72%
    09:00 +25°C° 0.6 mm 5 mps 750 mmHg 70%
    10:00 +26°C° 0.6 mm 6 mps 749 mmHg 67%
    11:00 +26°C° 0.6 mm 5 mps 749 mmHg 67%
    12:00 +25°C° 0.6 mm 5 mps 748 mmHg 67%
    13:00 +25°C° 0.6 mm 5 mps 747 mmHg 67%
    14:00 +22°C° 0.9 mm 6 mps 747 mmHg 74%
    15:00 +20°C° 0.9 mm 6 mps 747 mmHg 80%
    16:00 +16°C° 0.9 mm 7 mps 746 mmHg 87%
    17:00 +15°C° 0.6 mm 6 mps 746 mmHg 88%
    18:00 +13°C° 0.6 mm 6 mps 746 mmHg 88%
    19:00 +11°C° 0.6 mm 6 mps 746 mmHg 89%
    20:00 +11°C° 0.2 mm 7 mps 746 mmHg 87%
    21:00 +10°C° 0.2 mm 8 mps 747 mmHg 85%
    22:00 +10°C° 0.2 mm 9 mps 747 mmHg 82%
    23:00 +10°C° 0.2 mm 9 mps 747 mmHg 82%

    22 June, Friday

    Time Temperature Precipitation Wind Pressure Humidity
    00:00 +10°C° 0.2 mm 9 mps 747 mmHg 81%
    01:00 +10°C° 0.2 mm 8 mps 747 mmHg 80%
    02:00 +9°C° 0.2 mm 8 mps 747 mmHg 80%
    03:00 +9°C° 0.2 mm 8 mps 747 mmHg 81%
    04:00 +9°C° 0.2 mm 8 mps 747 mmHg 81%
    05:00 +8°C° 0.2 mm 9 mps 747 mmHg 78%
    06:00 +10°C° 0.2 mm 9 mps 747 mmHg 76%
    07:00 +10°C° 0.2 mm 9 mps 748 mmHg 73%
    08:00 +11°C° 0.3 mm 9 mps 748 mmHg 71%
    09:00 +12°C° 0.3 mm 9 mps 748 mmHg 69%
    10:00 +12°C° 0.3 mm 9 mps 748 mmHg 68%
    11:00 +12°C° 0.5 mm 8 mps 748 mmHg 71%
    12:00 +12°C° 0.5 mm 7 mps 748 mmHg 74%
    13:00 +12°C° 0.5 mm 7 mps 748 mmHg 77%
    14:00 +12°C° 0.6 mm 7 mps 748 mmHg 76%
    15:00 +14°C° 0.6 mm 6 mps 749 mmHg 75%
    16:00 +14°C° 0.6 mm 6 mps 749 mmHg 74%
    17:00 +14°C° 0.2 mm 6 mps 749 mmHg 71%
    18:00 +14°C° 0.2 mm 6 mps 749 mmHg 68%
    19:00 +14°C° 0.2 mm 6 mps 749 mmHg 65%
    20:00 +13°C° 0.1 mm 5 mps 750 mmHg 69%
    21:00 +12°C° 0.1 mm 5 mps 750 mmHg 72%
    22:00 +10°C° 0.1 mm 5 mps 750 mmHg 75%
    23:00 +10°C° 0.1 mm 5 mps 750 mmHg 79%

    23 June, Saturday

    Time Temperature Precipitation Wind Pressure Humidity
    00:00 +9°C° 0.1 mm 5 mps 750 mmHg 83%
    01:00 +10°C° 0.1 mm 4 mps 750 mmHg 88%
    02:00 +10°C° 0.1 mm 4 mps 751 mmHg 90%
    03:00 +10°C° 0.1 mm 4 mps 751 mmHg 91%
    04:00 +10°C° 0.1 mm 4 mps 751 mmHg 93%
    05:00 +12°C° 0 mm 4 mps 751 mmHg 84%
    06:00 +13°C° 0 mm 4 mps 751 mmHg 76%
    07:00 +15°C° 0 mm 5 mps 752 mmHg 67%
    08:00 +16°C° 0.1 mm 5 mps 752 mmHg 62%
    09:00 +17°C° 0.1 mm 5 mps 752 mmHg 57%
    10:00 +19°C° 0.1 mm 6 mps 753 mmHg 52%
    11:00 +19°C° 0.1 mm 6 mps 753 mmHg 49%
    12:00 +19°C° 0.1 mm 6 mps 753 mmHg 45%
    13:00 +18°C° 0.1 mm 7 mps 753 mmHg 42%
    14:00 +18°C° 0 mm 7 mps 753 mmHg 41%
    15:00 +19°C° 0 mm 6 mps 753 mmHg 40%
    16:00 +19°C° 0 mm 6 mps 753 mmHg 40%
    17:00 +19°C° 0 mm 6 mps 753 mmHg 46%
    18:00 +17°C° 0 mm 5 mps 753 mmHg 52%
    19:00 +17°C° 0 mm 4 mps 753 mmHg 59%
    20:00 +15°C° 0 mm 4 mps 754 mmHg 66%
    21:00 +13°C° 0 mm 4 mps 754 mmHg 74%
    22:00 +12°C° 0 mm 4 mps 754 mmHg 82%
    23:00 +12°C° 0.1 mm 4 mps 754 mmHg 84%

    24 June, Sunday

    Time Temperature Precipitation Wind Pressure Humidity
    00:00 +12°C° 0.1 mm 4 mps 754 mmHg 87%
    01:00 +12°C° 0.1 mm 4 mps 754 mmHg 89%
    02:00 +12°C° 0 mm 4 mps 754 mmHg 90%
    03:00 +11°C° 0 mm 4 mps 754 mmHg 91%
    04:00 +11°C° 0 mm 4 mps 754 mmHg 92%
    05:00 +12°C° 0.2 mm 4 mps 754 mmHg 89%
    06:00 +13°C° 0.2 mm 4 mps 754 mmHg 85%
    07:00 +14°C° 0.2 mm 5 mps 754 mmHg 82%
    08:00 +15°C° 0.3 mm 4 mps 755 mmHg 80%
    09:00 +15°C° 0.3 mm 4 mps 755 mmHg 78%
    10:00 +17°C° 0.3 mm 4 mps 755 mmHg 76%
    11:00 +18°C° 0.5 mm 4 mps 755 mmHg 74%
    12:00 +18°C° 0.5 mm 4 mps 755 mmHg 72%
    13:00 +19°C° 0.5 mm 4 mps 755 mmHg 70%
    14:00 +19°C° 0.4 mm 3 mps 755 mmHg 70%
    15:00 +19°C° 0.4 mm 3 mps 756 mmHg 69%
    16:00 +19°C° 0.4 mm 3 mps 756 mmHg 68%
    17:00 +18°C° 0.2 mm 3 mps 756 mmHg 72%
    18:00 +18°C° 0.2 mm 3 mps 756 mmHg 75%
    19:00 +17°C° 0.2 mm 3 mps 756 mmHg 79%
    20:00 +16°C° 0 mm 2 mps 756 mmHg 84%
    21:00 +14°C° 0 mm 2 mps 756 mmHg 89%
    22:00 +13°C° 0 mm 2 mps 756 mmHg 94%
    23:00 +13°C° 0 mm 2 mps 756 mmHg 95%
    Show more